Weather History for KLAF - February, 2012

Change the Weather History Date:

Sunday, February 26, 2012

  Actual Average Record
Temperature  
Mean Temperature 37 °F 34 °F  
Max Temperature 53 °F 42 °F 66 °F (1998)
Min Temperature 20 °F 25 °F 3 °F (1980)
Degree Days  
Heating Degree Days 28 31  
Month to date heating degree days 797 903  
Since 1 July heating degree days 3597 4271  
Cooling Degree Days 0 0  
Month to date cooling degree days 0 0  
Year to date cooling degree days 0 0  
Moisture  
Dew Point 20 °F    
Average Humidity 53    
Maximum Humidity 77    
Minimum Humidity 28    
Precipitation  
Precipitation 0.00 in 0.08 in 1.61 in (1957)
Month to date precipitation 0.95 1.61  
Year to date precipitation 3.26 3.47  
Sea Level Pressure  
Sea Level Pressure 30.22 in    
Wind  
Wind Speed 9 mph (South)    
Max Wind Speed 21 mph    
Max Gust Speed 28 mph    
Visibility 10 miles    
Events      
T = Trace of Precipitation, MM = Missing Value Source: NWS Daily Summary

Daily Weather History Graph

Daily Weather History Graph

Search for Another Location

Airport or City:

Trip Planner

Search our weather history database for the weather conditions in past years. The results will help you decide how hot, cold, wet, or windy it might be!

Date:

Astronomy

Feb. 26, 2012 Rise Set
Actual Time 7:26 AM EST 6:35 PM EST
Civil Twilight 6:59 AM EST 7:02 PM EST
Nautical Twilight 6:27 AM EST 7:34 PM EST
Astronomical Twilight 5:56 AM EST 8:05 PM EST
Moon 9:20 AM EST (2/26) 11:33 PM EST (2/26)
Length of Visible Light 12h 03m
Length of Day
11h 08m
Waxing Crescent, 20% of the Moon is Illuminated
Feb 26
Waxing Crescent
Feb 29
First Quarter
Mar 8
Full
Mar 14
Last Quarter
Mar 22
New

Hourly Weather History & Observations

Time (EST) Temp. Windchill Dew Point Humidity Pressure Visibility Wind Dir Wind Speed Gust Speed Precip Events Conditions
12:54 AM 24.1 °F - 16.0 °F 71% 30.37 in 10.0 mi Calm Calm - N/A   Clear
2:54 AM 23.0 °F - 16.0 °F 74% 30.35 in 10.0 mi Calm Calm - N/A   Clear
4:54 AM 23.0 °F 18.4 °F 16.0 °F 74% 30.36 in 10.0 mi ESE 3.5 mph - N/A   Clear
5:54 AM 24.1 °F 17.0 °F 17.1 °F 75% 30.36 in 10.0 mi SSE 5.8 mph - N/A   Clear
6:54 AM 25.0 °F 16.3 °F 17.1 °F 72% 30.35 in 10.0 mi SSE 8.1 mph - N/A   Clear
7:54 AM 26.1 °F 16.2 °F 17.1 °F 69% 30.34 in 10.0 mi SSE 10.4 mph - N/A   Clear
8:54 AM 30.0 °F 21.1 °F 19.0 °F 64% 30.32 in 10.0 mi SSE 10.4 mph - N/A   Clear
9:54 AM 34.0 °F 26.6 °F 21.0 °F 59% 30.30 in 10.0 mi South 9.2 mph 18.4 mph N/A   Clear
10:54 AM 39.0 °F 29.9 °F 19.9 °F 46% 30.28 in 10.0 mi South 17.3 mph 23.0 mph N/A   Clear
11:54 AM 42.1 °F 35.2 °F 19.9 °F 41% 30.25 in 10.0 mi SSW 12.7 mph 20.7 mph N/A   Clear
12:54 PM 46.0 °F 39.6 °F 19.0 °F 34% 30.22 in 10.0 mi South 15.0 mph 23.0 mph N/A   Clear
1:54 PM 48.9 °F - 19.0 °F 31% 30.17 in 10.0 mi South 17.3 mph 25.3 mph N/A   Clear
2:54 PM 51.1 °F - 19.9 °F 29% 30.14 in 10.0 mi South 18.4 mph 24.2 mph N/A   Clear
3:54 PM 52.0 °F - 19.9 °F 28% 30.10 in 10.0 mi South 13.8 mph 24.2 mph N/A   Clear
4:54 PM 53.1 °F - 21.0 °F 29% 30.11 in 10.0 mi SSW 12.7 mph 20.7 mph N/A   Clear
5:54 PM 51.1 °F - 21.9 °F 32% 30.10 in 10.0 mi SSW 12.7 mph 20.7 mph N/A   Clear
6:54 PM 48.9 °F - 21.9 °F 35% 30.11 in 10.0 mi SSW 10.4 mph - N/A   Clear
7:54 PM 48.0 °F - 21.9 °F 36% 30.12 in 10.0 mi SSW 8.1 mph - N/A   Clear
8:54 PM 45.0 °F 41.8 °F 21.9 °F 40% 30.12 in 10.0 mi South 5.8 mph - N/A   Clear
9:54 PM 45.0 °F 40.1 °F 23.0 °F 42% 30.12 in 10.0 mi SSW 9.2 mph - N/A   Clear
10:54 PM 45.0 °F 40.1 °F 21.9 °F 40% 30.12 in 10.0 mi SSW 9.2 mph - N/A   Clear
11:54 PM 43.0 °F 40.3 °F 23.0 °F 45% 30.12 in 10.0 mi WSW 4.6 mph - N/A   Clear